Darstellungsparameter: Aktuell verwendete Einstellungen:
Skalierung der Graphiken ... ?
xyx+y,   Skalierungsfaktor:      Skalierung: Modus: x, Faktor: 1
Darstellungszeitraum ... ?
Vom - - bis: - -   Zeitraum: 27.09.2010 - 27.09.2010
Min/Max/Avg-Anzeige ... ?
Zeige MMA aktuell
Zeige MMA Monat
Zeige MMA alles
Zeige --A aktuell
Zeige --A Monat
Zeige --A alles
Keine MMA-Anzeige
MMA:
Minimum Maximum Average (ber die Originaldaten)
MMA-Basis: 27.09.2010 - 27.09.2010
Quicknavigation für Darstellung... ?
Tage:      1T, 2T, 3T, 5T -1T -2T -3T -5T +1T +2T +3T +5T
Wochen: 1W, 2W, 3W -1W -2W -3W +1W +2W +3W
Monate: 1M, 3M, 6M -1M -3M -6M +1M +3M +6M
Jahre:    1J, 3J, 5J, 10J -1J -3J -5J -10J +1J +3J +5J +10J
Nutze für die Darstellung ... ?
Originaldaten oder Mittelwerte auf ...
Stundenbasis Tagesbasis Wochenbasis
Monatsbasis Jahresbasis      Datenbasis: Original-Daten
Darstellen als:
Statistik (Auto) Statistik J:M      Darstellung:
Zur Graphik,    zurück zur Übersicht aller Sensoren.
 
Tabellarische Datenbersicht: ?
 
Sensor: Nr:Datum:Temp:Abs-Feuchte:Windchill:Wind:
Aussen-T/F 1 27-09-2010 00:11:04 8.5 C 7.17 g/m*3 8.5 C 0 km/h
2 27-09-2010 00:23:04 8.2 C 7.03 g/m*3 8.2 C 0 km/h
3 27-09-2010 00:35:04 8.1 C 6.99 g/m*3 8.1 C 0 km/h
4 27-09-2010 00:47:04 7.9 C 6.98 g/m*3 7.9 C 0 km/h
5 27-09-2010 00:59:04 7.9 C 7.15 g/m*3 7.9 C 0 km/h
6 27-09-2010 01:11:04 7.8 C 7.18 g/m*3 7.8 C 0 km/h
7 27-09-2010 01:23:04 7.6 C 7.09 g/m*3 7.6 C 0 km/h
8 27-09-2010 01:35:04 7.5 C 7.04 g/m*3 7.5 C 0 km/h
9 27-09-2010 01:47:04 7.3 C 6.95 g/m*3 7.3 C 0 km/h
10 27-09-2010 01:59:04 7.1 C 6.94 g/m*3 7.1 C 0 km/h
11 27-09-2010 02:11:04 7 C 6.9 g/m*3 7 C 0 km/h
12 27-09-2010 02:23:04 7 C 6.9 g/m*3 7 C 0 km/h
13 27-09-2010 02:35:05 6.8 C 6.81 g/m*3 6.8 C 0 km/h
14 27-09-2010 02:47:05 6.7 C 6.84 g/m*3 6.7 C 0 km/h
15 27-09-2010 02:59:05 6.7 C 6.84 g/m*3 6.7 C 0 km/h
16 27-09-2010 03:11:05 6.5 C 6.75 g/m*3 6.5 C 0 km/h
17 27-09-2010 03:23:05 6.7 C 6.84 g/m*3 6.7 C 0 km/h
18 27-09-2010 03:35:05 6.4 C 6.71 g/m*3 6.4 C 0 km/h
19 27-09-2010 03:47:05 6.3 C 6.66 g/m*3 6.3 C 0 km/h
20 27-09-2010 03:59:05 6.4 C 6.78 g/m*3 6.4 C 0 km/h
21 27-09-2010 04:11:05 6.5 C 6.9 g/m*3 6.5 C 0 km/h
22 27-09-2010 04:23:05 6.4 C 6.85 g/m*3 6.4 C 0 km/h
23 27-09-2010 04:35:05 6.3 C 6.81 g/m*3 6.3 C 0 km/h
24 27-09-2010 04:47:05 6.1 C 6.72 g/m*3 6.1 C 0 km/h
25 27-09-2010 04:59:05 5.9 C 6.71 g/m*3 5.9 C 0 km/h
Sensor: Nr:Datum:Temp:Abs-Feuchte:Windchill:Wind:
Aussen-T/F 26 27-09-2010 05:11:05 5.9 C 6.71 g/m*3 5.9 C 0 km/h
27 27-09-2010 05:23:05 6.1 C 6.72 g/m*3 6.1 C 0 km/h
28 27-09-2010 05:35:05 6.3 C 6.81 g/m*3 6.3 C 0 km/h
29 27-09-2010 05:47:05 6.4 C 6.93 g/m*3 6.4 C 0 km/h
30 27-09-2010 05:59:05 6.5 C 6.97 g/m*3 6.5 C 0 km/h
31 27-09-2010 06:11:05 6.5 C 6.97 g/m*3 6.5 C 0 km/h
32 27-09-2010 06:23:05 6.4 C 6.93 g/m*3 6.4 C 0 km/h
33 27-09-2010 06:35:05 6.2 C 6.84 g/m*3 6.2 C 0 km/h
34 27-09-2010 06:47:06 6.2 C 6.84 g/m*3 6.2 C 0 km/h
35 27-09-2010 06:59:06 6.3 C 6.88 g/m*3 6.3 C 0 km/h
36 27-09-2010 07:11:04 6.3 C 6.88 g/m*3 6.3 C 0 km/h
37 27-09-2010 07:23:04 6.6 C 7.02 g/m*3 6.6 C 0 km/h
38 27-09-2010 07:35:04 6.7 C 7.14 g/m*3 6.7 C 0 km/h
39 27-09-2010 07:47:02 6.9 C 7.24 g/m*3 6.9 C 0 km/h
40 27-09-2010 07:59:02 7.2 C 7.38 g/m*3 7.2 C 0 km/h
41 27-09-2010 08:11:02 7.5 C 7.52 g/m*3 7.5 C 0 km/h
42 27-09-2010 08:23:02 7.5 C 7.52 g/m*3 7.5 C 0 km/h
43 27-09-2010 08:35:02 7.6 C 7.57 g/m*3 7.6 C 0 km/h
44 27-09-2010 08:47:02 7.8 C 7.67 g/m*3 7.8 C 0 km/h
45 27-09-2010 08:59:02 8.1 C 7.74 g/m*3 8.1 C 0 km/h
46 27-09-2010 09:11:02 8.5 C 7.94 g/m*3 8.5 C 0 km/h
47 27-09-2010 09:23:02 8.8 C 8.09 g/m*3 8.8 C 0 km/h
48 27-09-2010 09:35:02 9.2 C 8.22 g/m*3 9.2 C 0 km/h
49 27-09-2010 09:47:01 9.6 C 8.34 g/m*3 9.6 C 0 km/h
50 27-09-2010 09:59:01 10.1 C 8.42 g/m*3 10.1 C 0 km/h
Sensor: Nr:Datum:Temp:Abs-Feuchte:Windchill:Wind:
Aussen-T/F 51 27-09-2010 10:11:02 10.4 C 8.29 g/m*3 10.4 C 0 km/h
52 27-09-2010 10:23:01 10.4 C 7.9 g/m*3 10.4 C 0 km/h
53 27-09-2010 10:35:02 10.8 C 7.51 g/m*3 10.8 C 0 km/h
54 27-09-2010 10:47:01 11 C 7.11 g/m*3 11 C 0 km/h
55 27-09-2010 10:59:01 11.2 C 6.99 g/m*3 11.2 C 0 km/h
56 27-09-2010 11:11:02 11.7 C 7.01 g/m*3 11.7 C 0 km/h
57 27-09-2010 11:23:01 11.8 C 6.74 g/m*3 11.8 C 0 km/h
58 27-09-2010 11:35:02 12.2 C 6.8 g/m*3 12.2 C 0 km/h
59 27-09-2010 11:47:01 12 C 6.61 g/m*3 12 C 0 km/h
60 27-09-2010 11:59:01 12.2 C 6.8 g/m*3 12.2 C 0 km/h
61 27-09-2010 12:11:02 12.4 C 6.77 g/m*3 12.4 C 0 km/h
62 27-09-2010 12:23:01 12.8 C 6.94 g/m*3 12.8 C 0 km/h
63 27-09-2010 12:35:02 12.8 C 6.83 g/m*3 12.8 C 0 km/h
64 27-09-2010 12:47:01 13 C 6.8 g/m*3 13 C 0 km/h
65 27-09-2010 12:59:01 12.9 C 6.76 g/m*3 12.9 C 0 km/h
66 27-09-2010 13:11:02 13.1 C 6.73 g/m*3 13.1 C 0 km/h
67 27-09-2010 13:23:02 13.4 C 6.97 g/m*3 13.4 C 0 km/h
68 27-09-2010 13:35:01 13.6 C 6.71 g/m*3 13.6 C 0 km/h
69 27-09-2010 13:47:02 13.6 C 6.71 g/m*3 13.6 C 0 km/h
70 27-09-2010 13:59:02 13.7 C 6.51 g/m*3 13.7 C 0 km/h
71 27-09-2010 14:11:01 13.4 C 6.51 g/m*3 13.4 C 0 km/h
72 27-09-2010 14:23:02 13.3 C 6.7 g/m*3 13.3 C 0 km/h
73 27-09-2010 14:35:01 13.4 C 6.74 g/m*3 13.4 C 0 km/h
74 27-09-2010 14:47:03 13.2 C 6.77 g/m*3 13.2 C 0 km/h
75 27-09-2010 14:59:03 13 C 6.58 g/m*3 13 C 0 km/h
Sensor: Nr:Datum:Temp:Abs-Feuchte:Windchill:Wind:
Aussen-T/F 76 27-09-2010 15:11:02 13.4 C 6.74 g/m*3 13.4 C 0 km/h
77 27-09-2010 15:23:02 13.6 C 6.59 g/m*3 13.6 C 0 km/h
78 27-09-2010 15:35:02 13.6 C 6.47 g/m*3 13.6 C 0 km/h
79 27-09-2010 15:47:02 13.2 C 6.66 g/m*3 13.2 C 0 km/h
80 27-09-2010 15:59:02 13.2 C 6.77 g/m*3 13.2 C 0 km/h
81 27-09-2010 16:11:01 13.4 C 6.97 g/m*3 13.4 C 0 km/h
82 27-09-2010 16:23:02 13.4 C 7.44 g/m*3 13.4 C 0 km/h
83 27-09-2010 16:35:02 13.4 C 7.44 g/m*3 13.4 C 0 km/h
84 27-09-2010 16:47:01 13.3 C 7.05 g/m*3 13.3 C 0 km/h
85 27-09-2010 16:59:01 13.4 C 7.09 g/m*3 13.4 C 0 km/h
86 27-09-2010 17:11:01 13.2 C 7.58 g/m*3 13.2 C 0 km/h
87 27-09-2010 17:23:01 13 C 7.6 g/m*3 13 C 0 km/h
88 27-09-2010 17:35:02 12.8 C 7.73 g/m*3 12.8 C 0 km/h
89 27-09-2010 17:47:02 12.8 C 7.84 g/m*3 12.8 C 0 km/h
90 27-09-2010 17:59:02 12.7 C 7.68 g/m*3 12.7 C 0 km/h
91 27-09-2010 18:11:02 12.5 C 7.59 g/m*3 12.5 C 0 km/h
92 27-09-2010 18:23:01 12.3 C 7.71 g/m*3 12.3 C 0 km/h
93 27-09-2010 18:35:02 11.9 C 7.73 g/m*3 11.9 C 0 km/h
94 27-09-2010 18:47:02 11.7 C 7.74 g/m*3 11.7 C 0 km/h
95 27-09-2010 18:59:02 11.3 C 7.85 g/m*3 11.3 C 0 km/h
96 27-09-2010 19:11:02 10.8 C 8.01 g/m*3 10.8 C 0 km/h
97 27-09-2010 19:23:02 10.7 C 8.15 g/m*3 10.7 C 0 km/h
98 27-09-2010 19:35:02 10.5 C 8.15 g/m*3 10.5 C 0 km/h
99 27-09-2010 19:47:02 10.5 C 8.15 g/m*3 10.5 C 0 km/h
100 27-09-2010 19:59:02 10.4 C 8.19 g/m*3 10.4 C 0 km/h
Sensor: Nr:Datum:Temp:Abs-Feuchte:Windchill:Wind:
Aussen-T/F 101 27-09-2010 20:11:02 10.3 C 8.24 g/m*3 10.3 C 0 km/h
102 27-09-2010 20:23:02 10.3 C 8.33 g/m*3 10.3 C 0 km/h
103 27-09-2010 20:35:02 10.3 C 8.43 g/m*3 10.3 C 0 km/h
104 27-09-2010 20:47:01 10.3 C 8.43 g/m*3 10.3 C 0 km/h
105 27-09-2010 20:59:01 10.3 C 8.52 g/m*3 10.3 C 0 km/h
106 27-09-2010 21:11:02 10.4 C 8.58 g/m*3 10.4 C 0 km/h
107 27-09-2010 21:23:01 10.2 C 8.47 g/m*3 10.2 C 0 km/h
108 27-09-2010 21:35:02 10.3 C 8.52 g/m*3 10.3 C 0 km/h
109 27-09-2010 21:47:02 10.4 C 8.58 g/m*3 10.4 C 0 km/h
110 27-09-2010 21:59:03 10.4 C 8.58 g/m*3 10.4 C 0 km/h
111 27-09-2010 22:11:02 10.4 C 8.58 g/m*3 10.4 C 0 km/h
112 27-09-2010 22:24:10 10.4 C 8.67 g/m*3 10.4 C 0 km/h
113 27-09-2010 22:36:10 10.2 C 8.56 g/m*3 10.2 C 0 km/h
114 27-09-2010 22:48:10 10.2 C 8.56 g/m*3 10.2 C 0 km/h
115 27-09-2010 23:00:10 10.2 C 8.56 g/m*3 10.2 C 0 km/h
116 27-09-2010 23:12:10 10.2 C 8.66 g/m*3 10.2 C 0 km/h
117 27-09-2010 23:24:10 10.2 C 8.66 g/m*3 10.2 C 0 km/h
118 27-09-2010 23:36:10 10.1 C 8.61 g/m*3 10.1 C 0 km/h
119 27-09-2010 23:48:10 10.1 C 8.7 g/m*3 10.1 C 0 km/h

Legende:
   Min
   Max


Maximal/Minimal-Werte vom 27.09.2010 - 27.09.2010

Sensor Min Max Avg
Temp
(Aussen-T/F)
5.9 °C
27-09-2010  04:59:05
13.7 °C
27-09-2010  13:59:02
9.87 °C
Abs-Feuchte
(Aussen-T/F)
6.47 g/m*3
27-09-2010  15:35:02
8.7 g/m*3
27-09-2010  23:48:10
7.31 g/m*3
Windchill
(Aussen-T/F)
5.9 C
27-09-2010  04:59:05
13.7 C
27-09-2010  13:59:02
9.79 C

Die Daten stammen von einer Davis Vantage Pro 2 Wetter-Station und werden unter Linux mit der Software wview2wettercgi und aufbereitet. Alle Angaben erfolgen ohne Gewähr für ihre Vollständigkeit oder Richtigkeit.
Kontakt: Rainer Krienke krienke@uni-koblenz.de . Meine Webseiten an der Uni Koblenz oder privat.
Version: $Revision: 0.78 $